Retour au catalogue

STARLINK-36386

ActifCommunicationsSSO
NORAD 68612·PAYLOAD·🇺🇸 United States

Lancé Apr 5, 2026 depuis Vandenberg Space Force Base

Loading…

Prochains Passages (prochaines 24 heures)

TLE

FraisSource: CelesTrak SupGP

Époque: Sep 14, 2026, 21:12 UTC

1 68612C 26073L   26257.88381944  .00071064  00000+0  22070-2 0  2575
2 68612  97.2849  95.9434 0001629  91.6659  48.5309 15.33388258    18

Suivez STARLINK-36386 en temps réel avec AllMySat

Download on the App Store